(140699) = 2001 UL74

Discovered at Socorro on 2001-10-17 by LINEAR.

Orbit

Orbit type: Main Belt

Note: WebGL enabled browser required.

epoch2024-03-31.0
epoch JD2460400.5
perihelion date2019-06-08.50657
perihelion JD2458643.00657
argument of perihelion (°)289.94179
ascending node (°)203.90585
inclination (°)9.66366
eccentricity0.0413854
perihelion distance (AU)2.9643270
Tisserand w.r.t. Jupiter3.2
ΔV w.r.t. Earth (km/sec)11.1
semimajor axis (AU)3.0923031
mean anomaly (°)318.54769
mean daily motion (°/day)0.18125110
aphelion distance (AU)3.220
period (years)5.44
P-vector [x]-0.68733759
P-vector [y]0.71325424
P-vector [z]0.13724219
Q-vector [x]-0.72314570
Q-vector [y]-0.65429372
Q-vector [z]-0.22126911
absolute magnitude14.99
phase slope0.15
uncertainty0
referenceMPEC 2024-F50
observations used774
oppositions17
arc length (days)8601
first opposition used2000
last opposition used2024
residual rms (arc-secs)0.70
perturbers coarse indicatorM-v
perturbers precise indicator003Ek
first observation date used2000-08-31.0
last observation date used2024-03-19.0
computer nameMPCLINUX
JD of orbit computation2456789.374917
perihelion JD uncertainty (days)1.6708E-04
argument of perihelion uncertainty (°)3.5666E-05
ascending node uncertainty (°)1.9143E-05
inclination uncertainty (°)3.4836E-06
eccentricity uncertainty 3.7663E-08
perihelion distance uncertainty (AU)1.1664E-07
Minimum Orbit Intersection Distances (in AU)
for orbit epoch: 2460400.5, reference: E2024-GH2
Mercury2.60981
Venus2.26612
Earth1.99433
Mars1.35106
Jupiter1.80893
Saturn6.05499
Uranus15.4724
Neptune26.6956

Observations

786 total observations over interval: 2000 08 31.26907 – 2024 03 19.286308
These data are available for download (format description).

Date (UT) J2000 RA J2000 Dec Magn Location Ref
2000 08 31.26907 21 34 02.32 -02 23 01.9 20.1   704 – Lincoln Laboratory ETS, New Mexico MPS 182418
2000 08 31.28549 21 34 01.63 -02 23 07.7 19.7   704 – Lincoln Laboratory ETS, New Mexico MPS 182418
2000 08 31.29896 21 34 01.13 -02 23 13.7 19.4   704 – Lincoln Laboratory ETS, New Mexico MPS 182418
2000 08 31.31310 21 34 00.48 -02 23 18.1 19.5   704 – Lincoln Laboratory ETS, New Mexico MPS 182418
2001 10 17.32218 02 54 21.53 +13 06 49.1 19.9   704 – Lincoln Laboratory ETS, New Mexico MPS 41127
2001 10 17.33807 02 54 20.98 +13 06 42.7 19.6   704 – Lincoln Laboratory ETS, New Mexico MPS 41127
2001 10 17.35406 02 54 20.41 +13 06 36.9 20.5   704 – Lincoln Laboratory ETS, New Mexico MPS 41127
2001 10 17.36995 02 54 19.67 +13 06 30.9 19.7   704 – Lincoln Laboratory ETS, New Mexico MPS 41127
2001 10 17.38588 02 54 19.06 +13 06 26.2 19.8   704 – Lincoln Laboratory ETS, New Mexico MPS 41127
2001 10 18.41485 02 53 39.46 +13 00 19.3 19.5   644 – Palomar Mountain/NEAT MPS 44482
2001 10 18.43603 02 53 38.59 +13 00 11.7 19.7   644 – Palomar Mountain/NEAT MPS 44482
2001 10 18.45867 02 53 37.71 +13 00 03.7 20.3   644 – Palomar Mountain/NEAT MPS 44482
2001 10 22.30898 02 51 02.54 +12 36 43.0 19.5   704 – Lincoln Laboratory ETS, New Mexico MPS 41127
2001 10 22.32646 02 51 01.83 +12 36 37.1 19.5   704 – Lincoln Laboratory ETS, New Mexico MPS 41127
2001 10 22.35945 02 51 00.34 +12 36 24.8 19.7   704 – Lincoln Laboratory ETS, New Mexico MPS 41127
2001 10 23.34410 02 50 18.97 +12 30 21.2 19.3   704 – Lincoln Laboratory ETS, New Mexico MPS 41127
2001 10 23.36049 02 50 18.18 +12 30 13.6 19.6   704 – Lincoln Laboratory ETS, New Mexico MPS 41127
2001 10 23.37688 02 50 17.53 +12 30 07.7 19.2   704 – Lincoln Laboratory ETS, New Mexico MPS 41127
2001 10 23.39329 02 50 16.82 +12 30 01.8 19.8   704 – Lincoln Laboratory ETS, New Mexico MPS 41127
2001 10 24.32829 02 49 37.12 +12 24 14.1 19.5   704 – Lincoln Laboratory ETS, New Mexico MPS 41127
2001 10 24.34467 02 49 36.38 +12 24 06.9 20.0   704 – Lincoln Laboratory ETS, New Mexico MPS 41127
2001 10 24.36107 02 49 35.82 +12 24 00.0 20.3   704 – Lincoln Laboratory ETS, New Mexico MPS 41127
2001 10 24.39384 02 49 34.24 +12 23 48.8 19.9   704 – Lincoln Laboratory ETS, New Mexico MPS 41127
2001 11 20.21749 02 29 49.20 +09 43 03.9 19.1   704 – Lincoln Laboratory ETS, New Mexico MPS 44482
2001 11 20.23218 02 29 48.60 +09 42 59.6 19.7   704 – Lincoln Laboratory ETS, New Mexico MPS 44482
2001 11 20.24707 02 29 47.99 +09 42 55.1 19.6   704 – Lincoln Laboratory ETS, New Mexico MPS 44482
2001 11 20.26176 02 29 47.39 +09 42 50.7 19.4   704 – Lincoln Laboratory ETS, New Mexico MPS 44482
2001 11 20.27645 02 29 46.82 +09 42 45.7 19.2   704 – Lincoln Laboratory ETS, New Mexico MPS 44482
2001 12 09.14922 02 20 10.95 +08 26 55.6 19.7 R 699 – Lowell Observatory-LONEOS MPS 44482
2001 12 09.17275 02 20 10.31 +08 26 50.3   699 – Lowell Observatory-LONEOS MPS 44482
2001 12 09.19638 02 20 09.90 +08 26 47.4   699 – Lowell Observatory-LONEOS MPS 44482
2001 12 09.22001 02 20 09.40 +08 26 43.5   699 – Lowell Observatory-LONEOS MPS 44482
2001 12 11.24448 02 19 31.83 +08 21 30.1 20.4   704 – Lincoln Laboratory ETS, New Mexico MPS 44482
2001 12 11.25972 02 19 31.53 +08 21 28.8 20.4   704 – Lincoln Laboratory ETS, New Mexico MPS 44482
2001 12 11.27495 02 19 31.18 +08 21 26.3 19.9   704 – Lincoln Laboratory ETS, New Mexico MPS 44482
2002 11 13.473580 08 50 21.645 +06 32 12.66 20.45 V 645 – Apache Point-Sloan Digital Sky Survey MPS 79962
2002 11 13.477052 08 50 21.753 +06 32 11.47 21.28   645 – Apache Point-Sloan Digital Sky Survey MPS 79962
2003 01 02.39638 08 50 55.73 +03 34 57.7 19.8   704 – Lincoln Laboratory ETS, New Mexico MPS 73261
2003 01 02.41126 08 50 55.18 +03 34 57.6 20.1   704 – Lincoln Laboratory ETS, New Mexico MPS 73261
2003 01 02.42614 08 50 54.74 +03 34 57.7 19.4   704 – Lincoln Laboratory ETS, New Mexico MPS 73261
2003 01 02.44102 08 50 54.19 +03 34 57.3 19.4   704 – Lincoln Laboratory ETS, New Mexico MPS 73261
2003 01 26.42958 08 34 00.13 +04 14 45.3 18.6   644 – Palomar Mountain/NEAT MPS 71563
2003 01 26.45201 08 33 59.05 +04 14 49.9 19.2   644 – Palomar Mountain/NEAT MPS 71563
2003 01 26.47473 08 33 57.87 +04 14 54.7 19.8   644 – Palomar Mountain/NEAT MPS 71563
2003 01 27.38782 08 33 14.25 +04 18 07.8 19.8   608 – Haleakala-AMOS MPS 198583
2003 01 27.39870 08 33 13.70 +04 18 09.8 19.9   608 – Haleakala-AMOS MPS 198583
2003 01 27.40909 08 33 13.19 +04 18 12.1 19.8   608 – Haleakala-AMOS MPS 198583
2003 01 28.31152 08 32 29.72 +04 21 28.6 18.8   704 – Lincoln Laboratory ETS, New Mexico MPS 71563
2003 01 28.32619 08 32 28.92 +04 21 31.6 19.4   704 – Lincoln Laboratory ETS, New Mexico MPS 71563
2003 01 28.34086 08 32 28.22 +04 21 34.7 19.5   704 – Lincoln Laboratory ETS, New Mexico MPS 71563
2003 01 28.35553 08 32 27.55 +04 21 38.8 19.6   704 – Lincoln Laboratory ETS, New Mexico MPS 71563
2003 01 28.37021 08 32 26.85 +04 21 42.1 19.4   704 – Lincoln Laboratory ETS, New Mexico MPS 71563
2003 02 03.20157 08 27 49.06 +04 45 15.2 19.0 R 699 – Lowell Observatory-LONEOS MPS 73261
2003 02 03.22212 08 27 48.09 +04 45 20.6   699 – Lowell Observatory-LONEOS MPS 73261
2003 02 03.24263 08 27 47.13 +04 45 26.5   699 – Lowell Observatory-LONEOS MPS 73261
2003 02 03.26318 08 27 46.05 +04 45 32.3   699 – Lowell Observatory-LONEOS MPS 73261
2004 03 31.38895 14 45 21.24 -13 46 42.6 19.5   704 – Lincoln Laboratory ETS, New Mexico MPS 182418
2004 03 31.40901 14 45 20.61 -13 46 36.3 19.4   704 – Lincoln Laboratory ETS, New Mexico MPS 182418
2004 03 31.41910 14 45 20.32 -13 46 32.9 19.5   704 – Lincoln Laboratory ETS, New Mexico MPS 182418
2004 04 19.35984 14 34 05.84 -11 53 09.8 19.5   704 – Lincoln Laboratory ETS, New Mexico MPS 182418
2004 04 19.37083 14 34 05.36 -11 53 05.2 19.9   704 – Lincoln Laboratory ETS, New Mexico MPS 182418
2004 04 19.38183 14 34 04.91 -11 53 01.6 19.7   704 – Lincoln Laboratory ETS, New Mexico MPS 182418
2004 04 19.39283 14 34 04.39 -11 52 57.5 19.3   704 – Lincoln Laboratory ETS, New Mexico MPS 182418
2004 04 19.40401 14 34 03.94 -11 52 52.4 19.6   704 – Lincoln Laboratory ETS, New Mexico MPS 182418
2004 04 22.35544 14 31 57.63 -11 33 38.8 19.1   704 – Lincoln Laboratory ETS, New Mexico MPS 182418
2004 04 22.36607 14 31 57.15 -11 33 35.4 19.6   704 – Lincoln Laboratory ETS, New Mexico MPS 182418
2004 04 22.37681 14 31 56.70 -11 33 31.5 19.4   704 – Lincoln Laboratory ETS, New Mexico MPS 182418
2004 04 22.38752 14 31 56.33 -11 33 27.9 19.5   704 – Lincoln Laboratory ETS, New Mexico MPS 182418
2004 05 11.19778 14 18 28.68 -09 35 07.3 19.1 R 699 – Lowell Observatory-LONEOS MPS 106713
2004 05 11.21722 14 18 27.87 -09 34 59.9   699 – Lowell Observatory-LONEOS MPS 106713
2004 05 11.23661 14 18 27.10 -09 34 53.9   699 – Lowell Observatory-LONEOS MPS 106713
2004 05 11.25607 14 18 26.20 -09 34 47.1   699 – Lowell Observatory-LONEOS MPS 106713
2004 05 15.25113 14 15 51.92 -09 12 30.1 19.2   704 – Lincoln Laboratory ETS, New Mexico MPS 107361
2004 05 15.26989 14 15 51.31 -09 12 25.2 19.3   704 – Lincoln Laboratory ETS, New Mexico MPS 107361
2004 05 15.27904 14 15 50.86 -09 12 22.0 19.7   704 – Lincoln Laboratory ETS, New Mexico MPS 107361
2004 05 15.28910 14 15 50.47 -09 12 17.6 19.8   704 – Lincoln Laboratory ETS, New Mexico MPS 107361
2006 09 17.32671 00 36 18.32 +08 37 39.9 19.6 V 703 – Catalina Sky Survey MPS 179148
2006 09 17.33887 00 36 17.85 +08 37 34.8 19.6 V 703 – Catalina Sky Survey MPS 179148
2006 09 17.35099 00 36 17.28 +08 37 29.5 19.1 V 703 – Catalina Sky Survey MPS 179148
2006 09 18.22664 00 35 44.23 +08 32 11.6 20.0 V 691 – Steward Observatory, Kitt Peak-Spacewatch MPS 179148
2006 09 18.24396 00 35 43.56 +08 32 05.2 20.0 V 691 – Steward Observatory, Kitt Peak-Spacewatch MPS 179148
2006 09 18.26128 00 35 42.86 +08 31 58.9 19.7 V 691 – Steward Observatory, Kitt Peak-Spacewatch MPS 179148
2006 09 19.31942 00 35 01.95 +08 25 26.4 19.5 R 699 – Lowell Observatory-LONEOS MPS 179148
2006 09 19.34136 00 35 01.00 +08 25 18.9   699 – Lowell Observatory-LONEOS MPS 179148
2006 09 19.36332 00 35 00.14 +08 25 09.6   699 – Lowell Observatory-LONEOS MPS 179148
2006 09 19.38525 00 34 59.29 +08 25 01.6   699 – Lowell Observatory-LONEOS MPS 179148
